User: anonymous   Login
Location: Unspecified
(0.0000°N, 0.0000°E)
Time: 08:56:39
(UTC+00:00)
Language:

STARLINK-5441 - Orbit

View from above orbital plane
View from above orbital plane
View from above satellite
View from above satellite

Ground track
Ground track

The orbit is defined by the following mean orbital elements,

1 54787U          26145.46619507 +.00000000 +00000-0 +58965-4 0 00007
2 54787  53.2131  59.1760 0001251  87.2757 272.8378 15.08837040    04
Epoch (UTC): 25 May 2026 11:11:19
Eccentricity: 0.0001251
inclination: 53.2131°
perigee height: 539 km
apogee height: 541 km
right ascension of ascending node: 59.1760°
argument of perigee: 87.2757°
revolutions per day: 15.08837040
mean anomaly at epoch: 272.8378°

The dashed part of the orbit path shows where the satellite is in the earth's shadow,  

DLR